User: anonymous   Login
Location: Great Snoring
(52.8667°N, 0.8833°E)
Time: 03:13:58
(UTC+00:00)
Language:

CZ-4C R/B - Orbit

View from above orbital plane
View from above orbital plane
View from above satellite
View from above satellite

Ground track
Ground track

The orbit is defined by the following mean orbital elements,

1 36416U          26137.68248977 +.00000000 +00000-0 +19078-3 0 00001
2 36416  63.3832 126.6771 0696824   3.1400 357.3683 13.73097774    03
Epoch (UTC): 17 May 2026 16:22:47
Eccentricity: 0.0696824
inclination: 63.3832°
perigee height: 475 km
apogee height: 1502 km
right ascension of ascending node: 126.6771°
argument of perigee: 3.1400°
revolutions per day: 13.73097774
mean anomaly at epoch: 357.3683°

The dashed part of the orbit path shows where the satellite is in the earth's shadow,  

DLR